Pendleton, OR

1:54 PM PDT on May 23, 2018 (GMT -0700)
Eastern Oreg Regional At Pendleton

Weather History for KPDT - February, 2013

Change the Weather History Date:

Monday, February 11, 2013

  Actual Average Record
Temperature  
Mean Temperature 36 °F 38 °F  
Max Temperature 48 °F 46 °F 66 °F (1924)
Min Temperature 24 °F 30 °F -8 °F (1929)
Degree Days  
Heating Degree Days 29 27  
Month to date heating degree days 288 304  
Since 1 July heating degree days 3310 3462  
Cooling Degree Days 0 0  
Month to date cooling degree days 0 0  
Year to date cooling degree days 0 0  
Moisture  
Dew Point 30 °F    
Average Humidity 74    
Maximum Humidity 92    
Minimum Humidity 56    
Precipitation  
Precipitation 0.00 in 0.04 in 0.70 in (1923)
Month to date precipitation T 0.43  
Year to date precipitation 0.98 1.86  
Snow  
Snow 0.00 in 0.10 in 4.50 in (1933)
Month to date snowfall 0.0 1.4  
Year to date snowfall 0.1 5.1  
Since 1 July snowfall 1.9 12.6  
Snow Depth 0.00 in    
Sea Level Pressure  
Sea Level Pressure 30.22 in    
Wind  
Wind Speed 7 mph (SW)    
Max Wind Speed 18 mph    
Max Gust Speed 23 mph    
Visibility 10 miles    
Events      
T = Trace of Precipitation, MM = Missing Value Source: NWS Daily Summary

Daily Weather History Graph

Daily Weather History Graph

Search for Another Location

Airport or City:

Astronomy

Feb. 11, 2013 Rise Set
Actual Time 7:02 AM PST 5:16 PM PST
Civil Twilight 6:32 AM PST 5:47 PM PST
Nautical Twilight 5:57 AM PST 6:22 PM PST
Astronomical Twilight 5:22 AM PST 6:57 PM PST
Moon 7:22 AM PST (2/11) 7:28 PM PST (2/11)
Length of Visible Light 11h 15m
Length of Day
10h 13m
Waxing Crescent, 3% of the Moon is Illuminated
Feb 11
Waxing Crescent
Feb 17
First Quarter
Feb 25
Full
Mar 4
Last Quarter
Mar 11
New

Hourly Weather History & Observations

Time (PST) Temp. Windchill Dew Point Humidity Pressure Visibility Wind Dir Wind Speed Gust Speed Precip Events Conditions
12:53 AM 30.0 °F 21.1 °F 26.1 °F 85% 30.19 in 10.0 mi SSE 10.4 mph - N/A   Clear
1:53 AM 32.0 °F 25.6 °F 25.0 °F 75% 30.19 in 10.0 mi SSE 6.9 mph - N/A   Clear
2:53 AM 28.9 °F 25.2 °F 24.1 °F 82% 30.19 in 10.0 mi SE 3.5 mph - N/A   Clear
3:53 AM 30.0 °F 25.2 °F 24.1 °F 79% 30.21 in 10.0 mi SE 4.6 mph - N/A   Clear
4:53 AM 27.0 °F 18.7 °F 24.1 °F 89% 30.22 in 10.0 mi SE 8.1 mph - N/A   Clear
5:53 AM 26.1 °F 19.4 °F 21.9 °F 84% 30.23 in 10.0 mi SSE 5.8 mph - N/A   Clear
6:53 AM 26.1 °F 19.4 °F 23.0 °F 88% 30.21 in 10.0 mi SE 5.8 mph - N/A   Clear
7:53 AM 30.0 °F 26.5 °F 25.0 °F 82% 30.22 in 10.0 mi West 3.5 mph - N/A   Clear
8:53 AM 32.0 °F 28.7 °F 27.0 °F 82% 30.23 in 10.0 mi SE 3.5 mph - N/A   Clear
9:53 AM 36.0 °F 32.1 °F 27.0 °F 70% 30.22 in 10.0 mi SE 4.6 mph - N/A   Clear
10:53 AM 41.0 °F 38.0 °F 30.0 °F 65% 30.22 in 10.0 mi WSW 4.6 mph - N/A   Clear
11:53 AM 45.0 °F 39.3 °F 30.9 °F 58% 30.22 in 10.0 mi West 11.5 mph - N/A   Clear
12:53 PM 46.9 °F - 32.0 °F 56% 30.20 in 10.0 mi West 12.7 mph - N/A   Clear
1:53 PM 48.0 °F - 33.1 °F 56% 30.19 in 10.0 mi WNW 16.1 mph - N/A   Scattered Clouds
2:53 PM 46.9 °F - 33.1 °F 59% 30.19 in 10.0 mi West 13.8 mph 19.6 mph N/A   Mostly Cloudy
3:53 PM 46.0 °F 43.1 °F 34.0 °F 63% 30.19 in 10.0 mi WNW 5.8 mph - N/A   Clear
4:53 PM 44.1 °F 41.5 °F 36.0 °F 73% 30.21 in 10.0 mi NNE 4.6 mph - N/A   Mostly Cloudy
5:53 PM 42.1 °F - 34.0 °F 73% 30.22 in 10.0 mi Calm Calm - N/A   Overcast
6:53 PM 42.1 °F 38.4 °F 34.0 °F 73% 30.23 in 10.0 mi West 5.8 mph - N/A   Overcast
7:53 PM 43.0 °F 38.2 °F 34.0 °F 71% 30.24 in 10.0 mi WSW 8.1 mph - N/A   Overcast
8:53 PM 39.9 °F 35.1 °F 33.1 °F 77% 30.26 in 10.0 mi West 6.9 mph - N/A   Mostly Cloudy
9:53 PM 39.9 °F 35.8 °F 33.1 °F 77% 30.26 in 10.0 mi SW 5.8 mph - N/A   Overcast
10:53 PM 39.0 °F 34.8 °F 32.0 °F 76% 30.27 in 10.0 mi SSW 5.8 mph - N/A   Scattered Clouds
11:53 PM 37.9 °F 32.1 °F 33.1 °F 83% 30.27 in 10.0 mi WSW 8.1 mph - N/A   Mostly Cloudy